Weather History for KIWA - February, 2013

Change the Weather History Date:

Sunday, February 24, 2013

  Actual Average Record
Temperature  
Mean Temperature 49 °F -  
Max Temperature 57 °F 65 °F 84 °F (2009)
Min Temperature 37 °F 43 °F 33 °F (2001)
Degree Days  
Heating Degree Days 16    
Moisture  
Dew Point 22 °F    
Average Humidity 40    
Maximum Humidity 76    
Minimum Humidity 13    
Precipitation  
Precipitation 0.00 in - - ()
Sea Level Pressure  
Sea Level Pressure 29.95 in    
Wind  
Wind Speed 9 mph (NNW)    
Max Wind Speed 26 mph    
Max Gust Speed 33 mph    
Visibility 11 miles    
Events      
Averages and records for this station are not official NWS values.
T = Trace of Precipitation, MM = Missing Value Source: NWS Daily Summary

Daily Weather History Graph

Daily Weather History Graph

Search for Another Location

Airport or City:

Trip Planner

Search our weather history database for the weather conditions in past years. The results will help you decide how hot, cold, wet, or windy it might be!

Date:

Astronomy

Feb. 24, 2013 Rise Set
Actual Time 7:00 AM MST 6:19 PM MST
Civil Twilight 6:35 AM MST 6:44 PM MST
Nautical Twilight 6:06 AM MST 7:13 PM MST
Astronomical Twilight 5:37 AM MST 7:42 PM MST
Moon 5:34 PM MST (2/24) 5:58 AM MST (2/24)
Length of Visible Light 12h 09m
Length of Day
11h 19m
Waxing Gibbous, 99% of the Moon is Illuminated
Feb 24
Waxing Gibbous
Feb 25
Full
Mar 4
Last Quarter
Mar 11
New
Mar 19
First Quarter

Hourly Weather History & Observations

Time (MST) Temp. Windchill Dew Point Humidity Pressure Visibility Wind Dir Wind Speed Gust Speed Precip Events Conditions
12:15 AM 42.8 °F 40.1 °F 33.8 °F 70% 29.85 in 10.0 mi SE 4.6 mph - N/A   Clear
12:35 AM 42.8 °F 39.3 °F 33.8 °F 70% 29.85 in 10.0 mi ESE 5.8 mph - N/A   Clear
12:55 AM 42.8 °F 38.0 °F 33.8 °F 70% 29.85 in 10.0 mi SE 8.1 mph - N/A   Clear
1:15 AM 42.8 °F 39.3 °F 35.6 °F 76% 29.85 in 10.0 mi SE 5.8 mph - N/A   Clear
1:35 AM 42.8 °F 39.3 °F 33.8 °F 70% 29.85 in 10.0 mi SE 5.8 mph - N/A   Clear
1:55 AM 44.6 °F 40.2 °F 35.6 °F 71% 29.86 in 10.0 mi NNW 8.1 mph - N/A   Clear
2:15 AM 44.6 °F 41.4 °F 33.8 °F 66% 29.86 in 10.0 mi NNW 5.8 mph - N/A   Clear
2:35 AM 50.0 °F - 30.2 °F 47% 29.85 in 10.0 mi North 11.5 mph - N/A   Clear
2:55 AM 51.8 °F - 30.2 °F 44% 29.84 in 10.0 mi North 18.4 mph 24.2 mph N/A   Clear
3:15 AM 51.8 °F - 28.4 °F 41% 29.84 in 10.0 mi North 17.3 mph 26.5 mph N/A   Clear
3:35 AM 51.8 °F - 28.4 °F 41% 29.84 in 10.0 mi North 20.7 mph - N/A   Clear
3:55 AM 50.0 °F - 26.6 °F 40% 29.85 in 10.0 mi North 26.5 mph 29.9 mph N/A   Clear
4:15 AM 50.0 °F - 26.6 °F 40% 29.85 in 7.0 mi North 23.0 mph 31.1 mph N/A   Clear
4:35 AM 50.0 °F - 28.4 °F 43% 29.85 in 10.0 mi North 19.6 mph 33.4 mph N/A   Clear
4:55 AM 50.0 °F - 28.4 °F 43% 29.85 in 10.0 mi North 15.0 mph 20.7 mph N/A   Clear
5:15 AM 50.0 °F - 28.4 °F 43% 29.85 in 10.0 mi North 11.5 mph - N/A   Clear
5:47 AM 50.0 °F - 28.4 °F 43% 29.85 in 20.0 mi NNW 9.2 mph - N/A   Mostly Cloudy
6:47 AM 46.4 °F 40.4 °F 28.4 °F 50% 29.88 in 20.0 mi West 13.8 mph - N/A   Mostly Cloudy
7:47 AM 46.4 °F 39.8 °F 26.6 °F 46% 29.90 in 30.0 mi WNW 16.1 mph - N/A   Scattered Clouds
8:47 AM 48.2 °F - 19.4 °F 32% 29.92 in 30.0 mi NW 13.8 mph 23.0 mph N/A   Scattered Clouds
9:47 AM 53.6 °F - 21.2 °F 28% 29.94 in 30.0 mi WNW 16.1 mph 23.0 mph N/A   Scattered Clouds
11:47 AM 53.6 °F - 14.0 °F 21% 29.96 in 30.0 mi NW 18.4 mph 29.9 mph N/A   Scattered Clouds
12:47 PM 55.4 °F - 10.4 °F 17% 29.96 in 30.0 mi WNW 15.0 mph 26.5 mph N/A   Scattered Clouds
1:47 PM 55.4 °F - 5.0 °F 13% 29.95 in 30.0 mi North 13.8 mph 23.0 mph N/A   Mostly Cloudy
2:55 PM 57.2 °F - 6.8 °F 13% 29.96 in 30.0 mi NW 21.9 mph 28.8 mph N/A   Mostly Cloudy
3:54 PM 55.4 °F - 5.0 °F 13% 29.97 in 35.0 mi North 15.0 mph 25.3 mph N/A   Mostly Cloudy
4:50 PM 57.2 °F - 6.8 °F 13% 29.98 in 35.0 mi NNW 16.1 mph 26.5 mph N/A   Scattered Clouds
5:52 PM 57.2 °F - 6.8 °F 13% 30.00 in 35.0 mi North 8.1 mph 16.1 mph N/A   Scattered Clouds
6:50 PM 53.6 °F - 8.6 °F 16% 30.02 in 20.0 mi North 6.9 mph - N/A   Scattered Clouds
7:47 PM 51.8 °F - 10.4 °F 19% 30.03 in 20.0 mi Calm Calm - N/A   Scattered Clouds
7:55 PM 50.0 °F - 12.2 °F 22% 30.03 in 10.0 mi Calm Calm - N/A   Clear
8:15 PM 46.4 °F - 17.6 °F 32% 30.03 in 10.0 mi Calm Calm - N/A   Clear
8:35 PM 44.6 °F - 17.6 °F 34% 30.04 in 10.0 mi Calm Calm - N/A   Clear
8:47 PM 44.6 °F 43.1 °F 19.4 °F 37% 30.04 in 20.0 mi SSW 3.5 mph - N/A   Scattered Clouds
8:55 PM 42.8 °F 40.1 °F 21.2 °F 42% 30.05 in 10.0 mi WSW 4.6 mph - N/A   Clear
9:15 PM 42.8 °F - 21.2 °F 42% 30.06 in 10.0 mi Calm Calm - N/A   Clear
9:35 PM 42.8 °F - 17.6 °F 36% 30.07 in 10.0 mi Calm Calm - N/A   Clear
9:55 PM 44.6 °F - 14.0 °F 29% 30.08 in 10.0 mi Calm Calm - N/A   Clear
10:15 PM 46.4 °F - 17.6 °F 32% 30.08 in 10.0 mi Calm Calm - N/A   Clear
10:35 PM 41.0 °F 36.4 °F 23.0 °F 49% 30.09 in 10.0 mi East 6.9 mph - N/A   Clear
10:55 PM 41.0 °F 37.1 °F 23.0 °F 49% 30.10 in 10.0 mi East 5.8 mph - N/A   Clear
11:15 PM 41.0 °F 35.8 °F 21.2 °F 45% 30.11 in 10.0 mi East 8.1 mph - N/A   Clear
11:35 PM 41.0 °F 39.0 °F 23.0 °F 49% 30.12 in 10.0 mi South 3.5 mph - N/A   Clear
11:55 PM 37.4 °F 33.8 °F 23.0 °F 56% 30.11 in 10.0 mi ESE 4.6 mph - N/A   Clear